DW2819 Weather Reports


Display with metric or nautical units.
time (UTC)temp
F
wind
direction
speed
MPH
gust
MPH
rain 1hr
in
rain 24hr
in
rain mn
in
humidity
%
barometer
mb
20260506195704 40 176 0.0 0.0 0.00 0.00 0.00 54 1014.2
20260506195203 40 176 0.0 0.0 0.00 0.00 0.00 56 1014.1
20260506194707 40 176 0.0 0.0 0.00 0.00 0.00 54 1014.0
20260506194205 41 176 0.0 0.0 0.00 0.00 0.00 53 1014.1
20260506193712 41 176 0.0 0.0 0.00 0.00 0.00 56 1014.0
20260506193205 41 176 0.0 0.0 0.00 0.00 0.00 55 1013.9
20260506192706 41 176 0.0 0.0 0.00 0.00 0.00 55 1013.9
20260506190648 43 176 0.0 0.0 0.00 0.00 0.00 55 1013.9
20260506190146 43 176 0.0 0.0 0.00 0.00 0.00 56 1013.9
20260506185641 44 176 0.0 0.0 0.00 0.00 0.00 56 1013.9
20260506184642 44 176 0.0 0.0 0.00 0.00 0.00 51 1013.8
20260506183637 44 176 0.0 0.0 0.00 0.00 0.00 58 1013.8
20260506183137 44 176 0.0 0.0 0.00 0.00 0.00 59 1013.8
20260506182632 45 176 0.0 0.0 0.00 0.00 0.00 60 1013.8
20260506182129 45 176 0.0 0.0 0.00 0.00 0.00 61 1013.8
20260506181629 45 176 0.0 0.0 0.00 0.00 0.00 60 1013.7
20260506181120 45 176 0.0 0.0 0.00 0.00 0.00 63 1013.7
20260506180620 46 176 0.0 1.0 0.00 0.00 0.00 61 1013.7
20260506180122 46 176 0.0 1.0 0.00 0.00 0.00 62 1013.7
20260506175615 46 175 0.0 1.0 0.00 0.00 0.00 59 1013.8
20260506175113 47 164 0.0 2.0 0.00 0.00 0.00 59 1013.7
20260506174612 47 164 1.0 2.0 0.00 0.00 0.00 59 1013.6
20260506173610 47 116 0.0 1.0 0.00 0.00 0.00 59 1013.7
20260506173110 47 133 0.0 3.0 0.00 0.00 0.00 58 1013.7
20260506172606 47 118 0.0 3.0 0.00 0.00 0.00 57 1013.6
20260506172108 48 148 1.0 3.0 0.00 0.00 0.00 57 1013.6
20260506171606 48 148 0.0 3.0 0.00 0.00 0.00 56 1013.5
20260506171107 48 197 1.0 3.0 0.00 0.00 0.00 55 1013.5
20260506170601 48 345 1.0 2.0 0.00 0.00 0.00 54 1013.5
20260506170057 48 200 0.0 2.0 0.00 0.00 0.00 55 1013.4
20260506165555 49 94 0.0 3.0 0.00 0.00 0.00 56 1013.3
20260506165055 49 199 0.0 3.0 0.00 0.00 0.00 55 1013.3
20260506164553 49 127 0.0 3.0 0.00 0.00 0.00 55 1013.3
20260506164047 49 113 0.0 3.0 0.00 0.00 0.00 54 1013.3
20260506163549 49 168 1.0 3.0 0.00 0.00 0.00 52 1013.2
20260506163043 49 97 1.0 4.0 0.00 0.00 0.00 51 1013.3
20260506162540 50 135 1.0 4.0 0.00 0.00 0.00 54 1013.3
20260506162039 50 128 1.0 3.0 0.00 0.00 0.00 50 1013.3
20260506161535 50 61 1.0 3.0 0.00 0.00 0.00 52 1013.3
20260506161034 50 140 2.0 3.0 0.00 0.00 0.00 49 1013.2
20260506160532 50 217 1.0 3.0 0.00 0.00 0.00 54 1013.3
20260506160035 50 320 1.0 3.0 0.00 0.00 0.00 54 1013.3
20260506155533 50 224 0.0 4.0 0.00 0.00 0.00 54 1013.3
20260506155029 50 148 2.0 4.0 0.00 0.00 0.00 51 1013.3
20260506154529 50 192 0.0 4.0 0.00 0.00 0.00 53 1013.4
20260506154030 51 223 2.0 4.0 0.00 0.00 0.00 50 1013.3
20260506153529 51 152 1.0 3.0 0.00 0.00 0.00 52 1013.4
20260506153029 51 142 1.0 6.0 0.00 0.00 0.00 50 1013.3
20260506152532 51 135 1.0 6.0 0.00 0.00 0.00 49 1013.3
20260506152018 51 133 1.0 4.0 0.00 0.00 0.00 48 1013.3
20260506151518 51 157 2.0 5.0 0.00 0.00 0.00 47 1013.3
20260506150508 51 147 3.0 6.0 0.00 0.00 0.00 45 1013.4
20260506150016 51 179 1.0 3.0 0.00 0.00 0.00 43 1013.3
20260506145510 51 93 1.0 2.0 0.00 0.00 0.00 45 1013.4
20260506145008 51 254 0.0 2.0 0.00 0.00 0.00 47 1013.5
20260506144504 51 78 1.0 3.0 0.00 0.00 0.00 49 1013.4
20260506144003 51 155 1.0 3.0 0.00 0.00 0.00 49 1013.5
20260506143502 51 206 1.0 2.0 0.00 0.00 0.00 48 1013.4
20260506143004 51 169 1.0 4.0 0.00 0.00 0.00 47 1013.5
20260506142507 51 131 2.0 4.0 0.00 0.00 0.00 49 1013.4
20260506141506 51 118 1.0 5.0 0.00 0.00 0.00 46 1013.4
20260506141000 51 188 2.0 5.0 0.00 0.00 0.00 48 1013.3
20260506140457 51 39 1.0 3.0 0.00 0.00 0.00 45 1013.4
20260506135957 51 116 1.0 2.0 0.00 0.00 0.00 45 1013.4
20260506135458 51 131 1.0 3.0 0.00 0.00 0.00 45 1013.4
20260506134932 51 317 1.0 3.0 0.00 0.00 0.00 46 1013.4
20260506134437 51 186 1.0 2.0 0.00 0.00 0.00 46 1013.4
20260506133936 51 171 0.0 2.0 0.00 0.00 0.00 43 1013.5
20260506133436 51 264 0.0 1.0 0.00 0.00 0.00 39 1013.6
20260506132929 51 269 0.0 3.0 0.00 0.00 0.00 37 1013.5
20260506132435 51 7 2.0 3.0 0.00 0.00 0.00 36 1013.4
20260506131928 51 197 0.0 2.0 0.00 0.00 0.00 35 1013.4
20260506131409 52 310 1.0 4.0 0.00 0.00 0.00 35 1013.3
20260506130907 52 207 2.0 4.0 0.00 0.00 0.00 33 1013.2
20260506130405 51 172 1.0 6.0 0.00 0.00 0.00 33 1013.3
20260506125903 51 293 1.0 6.0 0.00 0.00 0.00 32 1013.2
20260506125408 51 319 2.0 6.0 0.00 0.00 0.00 32 1013.2
20260506124901 52 341 3.0 6.0 0.00 0.00 0.00 32 1013.3
20260506123902 52 347 1.0 4.0 0.00 0.00 0.00 32 1013.3
20260506122910 53 283 2.0 5.0 0.00 0.00 0.00 31 1013.3
20260506122413 53 326 2.0 5.0 0.00 0.00 0.00 30 1013.2
20260506121904 53 227 2.0 5.0 0.00 0.00 0.00 32 1013.2
20260506120907 52 288 2.0 4.0 0.00 0.00 0.00 33 1013.3
20260506120408 52 285 2.0 4.0 0.00 0.00 0.00 32 1013.3
20260506115904 52 333 3.0 5.0 0.00 0.00 0.00 31 1013.3
20260506115408 53 255 2.0 6.0 0.00 0.00 0.00 32 1013.2
20260506114906 53 324 2.0 6.0 0.00 0.00 0.00 31 1013.3
20260506114405 53 199 3.0 5.0 0.00 0.00 0.00 31 1013.3
20260506113404 52 313 1.0 3.0 0.00 0.00 0.00 33 1013.3
20260506112903 52 319 1.0 2.0 0.00 0.00 0.00 35 1013.2
20260506112404 51 90 1.0 2.0 0.00 0.00 0.00 35 1013.3
20260506111902 50 340 0.0 3.0 0.00 0.00 0.00 37 1013.4
20260506111408 50 223 0.0 3.0 0.00 0.00 0.00 36 1013.4
20260506110907 51 292 1.0 3.0 0.00 0.00 0.00 34 1013.5
20260506110406 51 248 1.0 3.0 0.00 0.00 0.00 33 1013.4
20260506105905 51 314 1.0 9.0 0.00 0.00 0.00 32 1013.3
20260506104906 52 353 4.0 6.0 0.00 0.00 0.00 30 1013.3
20260506103905 51 350 1.0 11.0 0.00 0.00 0.00 31 1013.3
20260506102906 53 331 4.0 7.0 0.00 0.00 0.00 32 1013.2
20260506102404 53 343 2.0 4.0 0.00 0.00 0.00 32 1013.1
20260506101903 53 350 2.0 5.0 0.00 0.00 0.00 32 1013.1
20260506100906 51 164 2.0 6.0 0.00 0.00 0.00 33 1013.2
20260506100404 51 323 2.0 6.0 0.00 0.00 0.00 32 1013.2
20260506095901 50 7 1.0 4.0 0.00 0.00 0.00 35 1013.2
20260506094903 51 0 2.0 6.0 0.00 0.00 0.00 34 1013.2
20260506094407 51 295 2.0 5.0 0.00 0.00 0.00 36 1013.0
20260506093902 51 0 3.0 5.0 0.00 0.00 0.00 35 1013.1
20260506092909 51 310 2.0 9.0 0.00 0.00 0.00 33 1013.1
20260506092404 52 21 3.0 5.0 0.00 0.00 0.00 33 1012.8
20260506091406 51 56 2.0 6.0 0.00 0.00 0.00 35 1012.8
20260506090903 50 336 1.0 6.0 0.00 0.00 0.00 35 1012.9
20260506090407 50 316 2.0 6.0 0.00 0.00 0.00 36 1012.9
20260506085404 50 306 3.0 6.0 0.00 0.00 0.00 36 1012.9
20260506084406 50 0 2.0 6.0 0.00 0.00 0.00 38 1012.8
20260506083903 51 306 1.0 6.0 0.00 0.00 0.00 38 1012.7
20260506083405 50 300 1.0 4.0 0.00 0.00 0.00 40 1012.8
20260506082906 50 235 2.0 4.0 0.00 0.00 0.00 38 1012.9
20260506082407 51 337 2.0 5.0 0.00 0.00 0.00 37 1012.9
20260506081903 51 316 3.0 9.0 0.00 0.00 0.00 37 1012.8
20260506081403 50 283 4.0 9.0 0.00 0.00 0.00 37 1012.7
20260506080904 49 340 1.0 6.0 0.00 0.00 0.00 40 1012.7
20260506080406 49 347 3.0 6.0 0.00 0.00 0.00 38 1012.7
20260506073407 49 282 1.0 6.0 0.00 0.00 0.00 43 1012.5
20260506072903 49 100 2.0 5.0 0.00 0.00 0.00 45 1012.5
20260506072407 49 319 2.0 7.0 0.00 0.00 0.00 44 1012.5
20260506071909 49 4 3.0 7.0 0.00 0.00 0.00 43 1012.5
20260506071404 49 264 2.0 4.0 0.00 0.00 0.00 47 1012.4
20260506070903 49 196 2.0 4.0 0.00 0.00 0.00 47 1012.4
20260506070404 48 324 1.0 5.0 0.00 0.00 0.00 48 1012.3
20260506062404 46 350 3.0 6.0 0.00 0.00 0.00 53 1012.2
20260506061905 46 307 4.0 6.0 0.00 0.00 0.00 56 1012.2
20260506061405 46 0 2.0 5.0 0.00 0.00 0.00 56 1012.2
20260506060902 45 357 1.0 4.0 0.00 0.00 0.00 60 1012.0
20260506060403 45 275 1.0 4.0 0.00 0.00 0.00 61 1012.0
20260506051407 41 285 2.0 3.0 0.00 0.00 0.00 71 1011.6
20260506050906 41 293 2.0 3.0 0.00 0.00 0.00 72 1011.5
20260506050405 40 302 1.0 3.0 0.00 0.00 0.00 72 1011.5
20260506044907 39 316 2.0 5.0 0.00 0.00 0.00 76 1011.3
20260506044408 38 252 1.0 3.0 0.00 0.00 0.00 78 1011.2
20260506043902 38 45 1.0 3.0 0.00 0.00 0.00 81 1011.2
20260506042907 37 285 0.0 2.0 0.00 0.00 0.00 82 1011.0
20260506042407 36 345 0.0 3.0 0.00 0.00 0.00 85 1011.1
20260506041906 35 303 0.0 3.0 0.00 0.00 0.00 85 1011.0
20260506041404 35 353 0.0 3.0 0.00 0.00 0.00 87 1011.0
20260506040902 34 355 1.0 3.0 0.00 0.00 0.00 87 1011.0
20260506040404 33 1 1.0 2.0 0.00 0.00 0.00 88 1011.0
20260506035906 33 252 0.0 1.0 0.00 0.00 0.00 88 1010.9
20260506034906 32 252 0.0 0.0 0.00 0.00 0.00 88 1010.8
20260506034405 32 252 0.0 0.0 0.00 0.00 0.00 88 1010.8
20260506033905 32 252 0.0 0.0 0.00 0.00 0.00 88 1010.7
20260506033403 31 252 0.0 0.0 0.00 0.00 0.00 88 1010.7
20260506032903 31 252 0.0 0.0 0.00 0.00 0.00 88 1010.6
20260506031906 31 252 0.0 0.0 0.00 0.00 0.00 88 1010.5
20260506030904 31 252 0.0 0.0 0.00 0.00 0.00 88 1010.4
20260506030402 30 252 0.0 0.0 0.00 0.00 0.00 88 1010.4
20260506025408 30 252 0.0 0.0 0.00 0.00 0.00 87 1010.3
20260506024908 30 252 0.0 0.0 0.00 0.00 0.00 87 1010.2
20260506024402 30 252 0.0 0.0 0.00 0.00 0.00 87 1010.1
20260506023905 30 252 0.0 0.0 0.00 0.00 0.00 87 1010.1
20260506023406 30 252 0.0 0.0 0.00 0.00 0.00 87 1010.0
20260506022903 30 252 0.0 0.0 0.00 0.00 0.00 87 1010.0
20260506022405 30 252 0.0 0.0 0.00 0.00 0.00 87 1009.9
20260506021403 30 252 0.0 0.0 0.00 0.00 0.00 86 1009.8
20260506020905 30 252 0.0 0.0 0.00 0.00 0.00 86 1009.8
20260506020402 30 252 0.0 0.0 0.00 0.00 0.00 85 1009.9
20260506015904 30 252 0.0 0.0 0.00 0.00 0.00 85 1009.7
20260506015402 30 252 0.0 0.0 0.00 0.00 0.00 85 1009.7
20260506014902 30 252 0.0 0.0 0.00 0.00 0.00 85 1009.7
20260506014402 30 252 0.0 0.0 0.00 0.00 0.00 85 1009.7
20260506013905 30 252 0.0 0.0 0.00 0.00 0.00 86 1009.6
20260506013406 30 252 0.0 0.0 0.00 0.00 0.00 85 1009.6
20260506012902 31 252 0.0 0.0 0.00 0.00 0.00 85 1009.6
20260506012402 31 252 0.0 0.0 0.00 0.00 0.00 85 1009.5
20260506011902 31 252 0.0 0.0 0.00 0.00 0.00 84 1009.5
20260506011405 31 252 0.0 0.0 0.00 0.00 0.00 85 1009.5
20260506010905 31 252 0.0 0.0 0.00 0.00 0.00 84 1009.5
20260506010405 31 252 0.0 0.0 0.00 0.00 0.00 84 1009.4
20260506005906 31 252 0.0 0.0 0.00 0.00 0.00 84 1009.4
20260506005403 31 252 0.0 0.0 0.00 0.00 0.00 84 1009.3
20260506004902 31 252 0.0 0.0 0.00 0.00 0.00 84 1009.3
20260506003902 31 252 0.0 0.0 0.00 0.00 0.00 84 1009.2
20260506003402 31 252 0.0 0.0 0.00 0.00 0.00 84 1009.2
20260506002902 31 252 0.0 0.0 0.00 0.00 0.00 84 1009.1
20260506002405 32 252 0.0 0.0 0.00 0.00 0.00 84 1009.1
20260506001905 32 252 0.0 0.0 0.00 0.00 0.00 83 1009.1
20260506001402 32 252 0.0 0.0 0.00 0.00 0.00 83 1009.1
20260506000851 32 252 0.0 0.0 0.00 0.00 0.00 83 1009.1
20260506000333 32 252 0.0 0.0 0.00 0.00 0.00 83 1009.0
20260505235834 32 252 0.0 0.0 0.00 0.00 0.00 83 1008.9
20260505235332 32 252 0.0 0.0 0.00 0.00 0.00 83 1009.0
20260505234830 32 252 0.0 0.0 0.00 0.00 0.00 83 1008.9
20260505234329 32 252 0.0 0.0 0.00 0.00 0.00 83 1008.8
20260505233829 33 252 0.0 0.0 0.00 0.00 0.00 82 1008.9
20260505232832 33 252 0.0 1.0 0.00 0.00 0.00 83 1008.8
20260505232330 33 252 0.0 1.0 0.00 0.00 0.00 82 1008.9
20260505231832 33 252 0.0 1.0 0.00 0.00 0.00 82 1008.7
20260505231329 33 252 0.0 2.0 0.00 0.00 0.00 82 1008.7
20260505230830 33 262 0.0 2.0 0.00 0.00 0.00 82 1008.7
20260505230329 33 261 0.0 1.0 0.00 0.00 0.00 81 1008.7
20260505225829 33 261 0.0 0.0 0.00 0.00 0.00 81 1008.7
20260505225329 33 261 0.0 1.0 0.00 0.00 0.00 81 1008.6
20260505224833 33 261 0.0 1.0 0.00 0.00 0.00 81 1008.5
20260505224334 33 264 0.0 1.0 0.00 0.00 0.00 81 1008.6
20260505223829 34 264 0.0 1.0 0.00 0.00 0.00 80 1008.4
20260505223328 34 300 0.0 1.0 0.00 0.00 0.00 80 1008.5
20260505222832 34 300 0.0 1.0 0.00 0.00 0.00 80 1008.4
20260505222328 34 302 0.0 1.0 0.00 0.00 0.00 80 1008.5
20260505221829 34 302 0.0 1.0 0.00 0.00 0.00 80 1008.4
20260505215309 35 348 1.0 1.0 0.00 0.00 0.00 78 1008.2
20260505214808 35 348 0.0 1.0 0.00 0.00 0.00 77 1008.3
20260505214309 35 348 0.0 1.0 0.00 0.00 0.00 77 1008.2
20260505213805 35 348 0.0 0.0 0.00 0.00 0.00 77 1008.3
20260505213307 35 348 0.0 1.0 0.00 0.00 0.00 77 1008.3
20260505212810 35 348 0.0 1.0 0.00 0.00 0.00 76 1008.1
20260505212305 35 348 0.0 1.0 0.00 0.00 0.00 76 1008.1
20260505211806 36 357 0.0 1.0 0.00 0.00 0.00 76 1008.1
20260505211306 36 357 0.0 1.0 0.00 0.00 0.00 75 1008.0
20260505210804 36 357 0.0 1.0 0.00 0.00 0.00 74 1008.0
20260505210312 36 357 0.0 1.0 0.00 0.00 0.00 74 1007.9
20260505205305 36 344 0.0 2.0 0.00 0.00 0.00 74 1007.8
20260505204805 36 252 0.0 2.0 0.00 0.00 0.00 73 1007.7
20260505204315 36 128 0.0 2.0 0.00 0.00 0.00 72 1007.6
20260505203812 37 193 0.0 1.0 0.00 0.00 0.00 72 1007.5
20260505203307 37 203 0.0 1.0 0.00 0.00 0.00 72 1007.5
20260505202805 37 203 0.0 0.0 0.00 0.00 0.00 71 1007.4
20260505202307 37 203 0.0 0.0 0.00 0.00 0.00 71 1007.4
20260505201304 38 203 0.0 0.0 0.00 0.00 0.00 70 1007.4
20260505200803 38 203 0.0 0.0 0.00 0.00 0.00 70 1007.3